Track GLOBALSTAR M024 now! 10-day predictions GLOBALSTAR M024 is classified as:
1 25883U 99043A 21025.84037939 .00000013 00000-0 27667-2 0 9998 2 25883 52.0042 38.2376 0001187 0.3526 58.5535 11.10144921936804